SCP
0 0 0 0 0 0 0 0 0 0 0 0 0 0 0 0 0 0 0 0 0 0 0 0 0 0 0 0 0 0 0 0 0 0 0 0 0 0 0 0 0 0 0
0 0 0 0 0 0 0 0 0 0 0 0 0 0 0 0 0 0 0 0 0 0 0 0 0 0 0 0 0 0 0 0 0 0 0 0 0 0 0 0 0 0 0
0 0 0 0 0 0 0 0 0 0 0 0 0 0 0 0 0 0 0 0 0 0 0 0 0 0 0 0 0 0 0 0 0 0 0 0 0 0 0 0 0 0 0
0 0 0 0 0 0 0 0 0 0 0 0 0 0 0 0 0 0 0 0 0 0 0 0 0 0 0 0 0 0 0 0 0 0 0 0 0 0 0 0 0 0 0
0 0 0 0 0 0 0 0 0 0 0 0 0 0 0 0 0 0 0 0 0 0 0 0 0 0 0 0 0 0 0 0 0 0 0 0 0 0 0 0 0 0 0
0 0 0 0 0 0 0 0 0 0 0 0 0 0 0 0 0 0 0 0 0 0 0 0 0 0 0 0 0 0 0 0 0 0 0 0 0 0 0 0 0 0 0
0 0 0 0 0 0 0 0 0 0 0 0 0 0 0 0 0 0 0 0 0 0 0 0 0 0 0 0 0 0 0 0 0 0 0 0 0 0 0 0 0 0 0
0 0 0 0 0 0 0 0 0 0 0 0 0 0 0 0 0 0 0 0 0 0 0 0 0 0 0 0 0 0 0 0 0 0 0 0 0 0 0 0 0 0 0
0 0 0 0 0 0 0 0 0 0 0 0 0 0 0 0 0 0 0 0 0 0 0 0 0 0 0 0 0 0 0 0 0 0 0 0 0 0 0 0 0 0 0
0 0 0 0 0 0 0 0 0 0 0 0 0 0 0 0 0 0 0 0 0 0 0 0 0 0 0 0 0 0 0 0 0 0 0 0 0 0 0 0 0 0 0
0 0 0 0 0 0 0 0 0 0 0 0 0 0 0 0 0 0 0 0 0 0 0 0 0 0 0 0 0 0 0 0 0 0 0 0 0 0 0 0 0 0 0
0 0 0 0 0 0 0 0 0 0 0 0 0 0 0 0 0 0 0 0 0 0 0 0 0 0 0 0 0 0 0 0 0 0 0 0 0 0 0 0 0 0 0
0 0 0 0 0 0 0 0 0 0 0 0 0 0 0 0 0 0 0 0 0 0 0 0 0 0 0 0 0 0 0 0 0 0 0 0 0 0 0 0 0 0 0
0 0 0 0 0 0 0 0 0 0 0 0 0 0 0 0 0 0 0 0 0 0 0 0 0 0 0 0 0 0 0 0 0 0 0 0 0 0 0 0 0 0 0
0 0 0 0 0 0 0 0 0 0 0 0 0 0 0 0 0 0 0 0 0 0 0 0 0 0 0 0 0 0 0 0 0 0 0 0 0 0 0 0 0 0 0
0 0 0 0 0 0 0 0 0 0 0 0 0 0 0 0 0 0 0 0 0 0 0 0 0 0 0 0 0 0 0 0 0 0 0 0 0 0 0 0 0 0 0
0 0 0 0 0 0 0 0 0 0 0 0 0 0 0 0 0 0 0 0 0 0 0 0 0 0 0 0 0 0 0 0 0 0 0 0 0 0 0 0 0 0 0
0 0 0 0 0 0 0 0 0 0 0 0 0 0 0 0 0 0 0 0 0 0 0 0 0 0 0 0 0 0 0 0 0 0 0 0 0 0 0 0 0 0 0
0 0 0 0 0 0 0 0 0 0 0 0 0 0 0 0 0 0 0 0 0 0 0 0 0 0 0 0 0 0 0 0 0 0 0 0 0 0 0 0 0 0 0
0 0 0 0 0 0 0 0 0 0 0 0 0 0 0 0 0 0 0 0 0 0 0 0 0 0 0 0 0 0 0 0 0 0 0 0 0 0 0 0 0 0 0
0 0 0 0 0 0 0 0 0 0 0 0 0 0 0 0 0 0 0 0 0 0 0 0 0 0 0 0 0 0 0 0 0 0 0 0 0 0 0 0 0 0 0
0 0 0 0 0 0 0 0 0 0 0 0 0 0 0 0 0 0 0 0 0 0 0 0 0 0 0 0 0 0 0 0 0 0 0 0 0 0 0 0 0 0 0
0 0 0 0 0 0 0 0 0 0 0 0 0 0 0 0 0 0 0 0 0 0 0 0 0 0 0 0 0 0 0 0 0 0 0 0 0 0 0 0 0 0 0
0 0 0 0 0 0 0 0 0 0 0 0 0 0 0 0 0 0 0 0 0 0 0 0 0 0 0 0 0 0 0 0 0 0 0 0 0 0 0 0 0 0 0
0 0 0 0 0 0 0 0 0 0 0 0 0 0 0 0 0 0 0 0 0 0 0 0 0 0 0 0 0 0 0 0 0 0 0 0 0 0 0 0 0 0 0
0 0 0 0 0 0 0 0 0 0 0 0 0 0 0 0 0 0 0 0 0 0 0 0 0 0 0 0 0 0 0 0 0 0 0 0 0 0 0 0 0 0 0
Wind_Speed
1 1 0 0 1 1 1 1 1 1 1 1 1 2 2 3 3 3 2 7 8 9 9 10 9 9 9 9 8 8 8 8 8 7 7 7 7 7 7 7 7 7 6
2 1 1 1 1 1 1 1 1 1 1 1 1 1 2 2 2 3 2 4 7 9 9 10 10 10 10 10 10 9 9 9 8 8 8 8 8 8 8 8 7 7 7
2 2 2 1 1 1 1 1 1 1 1 1 1 1 1 2 2 3 3 2 3 6 9 10 10 10 11 11 11 11 11 10 10 9 9 9 9 8 8 8 8 8 7
3 2 2 2 2 1 1 1 1 1 1 1 1 0 1 1 2 2 2 2 2 3 5 9 10 10 11 12 12 12 12 12 11 11 10 10 10 10 9 9 9 9 8
3 3 2 2 2 2 1 2 1 2 1 1 1 0 0 1 2 2 3 3 3 3 3 5 8 9 11 12 12 12 13 13 12 12 12 12 12 11 11 11 10 10 9
3 3 2 2 2 2 1 2 2 1 2 2 1 0 0 1 1 2 3 3 3 4 4 4 3 5 9 10 11 12 12 12 12 12 12 12 12 12 11 11 10 10 10
3 3 2 2 2 2 3 3 2 2 1 2 1 1 1 1 1 1 1 2 2 3 3 3 3 3 3 6 8 10 12 12 12 12 12 12 12 11 11 11 11 10 10
3 3 3 2 2 2 2 2 2 2 1 2 2 1 1 2 1 0 0 1 2 2 2 3 3 3 3 2 3 7 9 11 11 11 11 11 11 11 11 11 11 10 10
2 2 3 2 2 2 2 3 3 3 2 2 2 3 2 2 1 1 0 1 1 1 2 2 3 3 3 3 3 5 7 7 9 10 10 10 10 10 11 11 11 10 10
2 2 2 3 2 2 2 3 2 2 3 2 2 2 2 3 2 1 1 1 1 1 2 2 2 2 2 2 3 4 6 6 7 8 9 9 8 8 9 10 11 10 10
2 2 3 3 3 2 2 2 2 2 2 3 2 2 1 1 2 2 2 1 1 1 1 2 1 1 2 2 2 2 3 4 5 6 7 7 7 8 8 9 10 10 10
1 2 2 2 2 2 2 3 2 3 2 2 2 2 2 2 3 3 3 2 2 1 1 1 1 1 1 2 2 2 2 2 2 3 4 5 6 6 6 7 8 9 9
1 2 2 2 2 2 2 2 2 2 3 3 3 3 3 3 2 2 2 2 2 1 1 0 1 1 1 1 1 1 1 1 1 1 2 2 3 4 4 5 5 6 7
2 2 3 2 2 2 2 2 1 2 2 3 3 3 2 2 2 2 2 2 2 1 1 1 0 0 1 1 1 1 1 1 1 1 1 1 1 1 2 2 3 3 3
2 2 2 2 2 1 2 2 1 2 1 1 2 2 2 2 2 2 2 3 3 2 2 2 1 0 1 1 1 1 0 2 2 2 1 1 1 1 1 1 1 1 2
2 2 2 2 1 1 1 1 1 1 1 2 1 2 2 1 1 2 2 2 2 3 2 1 1 1 1 1 2 2 1 2 3 3 3 2 2 2 2 2 2 2 2
3 3 2 2 2 1 1 1 0 1 1 1 1 2 2 1 1 1 2 2 2 2 2 1 0 0 1 1 2 2 2 2 2 3 3 3 3 3 3 3 3 2 2
2 3 3 2 2 1 1 1 1 1 1 2 2 2 1 1 1 1 1 2 2 2 3 3 1 1 1 1 1 2 2 2 2 4 4 3 3 3 3 3 3 3 3
3 3 3 3 2 1 1 1 1 1 1 1 1 2 2 2 1 1 2 2 1 2 2 3 2 1 1 1 1 2 2 2 2 3 3 3 4 4 3 3 3 3 3
3 2 2 2 2 1 1 1 1 1 0 0 0 1 1 2 2 2 2 2 2 2 2 3 2 1 1 1 1 1 1 2 2 2 3 3 3 4 4 3 3 3 3
3 3 2 2 1 1 0 1 1 1 1 0 0 0 0 1 1 2 2 2 3 3 3 3 2 1 1 1 1 0 0 1 1 1 1 2 2 2 2 2 2 3 2
3 3 2 2 1 0 0 2 2 1 1 1 0 0 0 0 1 2 2 2 4 4 4 3 2 2 2 2 1 1 1 0 0 1 1 1 1 1 1 1 2 2 2
3 2 2 2 1 0 1 1 2 2 1 1 1 0 0 1 1 1 2 2 2 2 4 4 3 3 3 3 3 2 1 1 1 1 1 1 1 1 1 1 1 1 1
3 2 2 1 1 0 0 2 3 2 1 1 1 1 1 1 1 2 2 3 2 1 1 2 2 3 2 2 3 2 2 1 0 0 1 1 1 2 2 1 1 1 1
2 2 2 2 1 1 1 2 3 2 1 1 1 1 1 1 2 3 3 3 2 2 3 3 2 2 3 3 3 3 2 1 0 1 0 1 1 2 2 1 1 1 2
3 2 1 1 1 0 0 1 2 2 1 1 1 2 3 2 3 4 3 3 2 1 2 3 3 3 3 3 4 3 3 2 1 1 1 1 1 1 1 1 1 1 2
Wind_Direction
149 134 116 98 110 112 117 115 109 103 93 87 134 159 167 172 181 187 196 201 202 200 198 196 192 192 193 191 193 195 196 195 195 194 193 193 191 191 192 190 189 188 189
168 168 171 172 190 164 150 145 141 132 124 124 141 169 182 185 188 194 202 212 213 207 202 202 202 201 201 203 204 206 206 206 204 200 201 203 203 204 204 202 202 203 201
176 172 175 191 211 180 156 132 128 125 145 133 131 166 181 192 191 198 200 208 220 217 211 210 210 211 211 211 212 214 215 215 211 208 209 210 209 211 212 211 210 211 208
182 174 185 205 199 167 158 158 161 140 147 142 146 207 182 191 205 205 203 208 215 225 224 223 219 218 220 222 222 221 219 219 217 216 216 215 214 215 215 215 216 215 213
190 179 198 210 178 157 173 193 166 159 165 165 168 171 192 213 220 214 210 216 216 222 230 240 234 227 226 229 230 228 224 223 222 221 222 223 222 219 217 219 221 219 218
194 185 198 201 171 162 182 184 172 151 162 166 158 72 7 263 246 233 231 226 222 228 232 242 245 242 238 238 237 234 230 227 224 224 225 226 226 222 220 221 221 222 220
195 185 197 187 174 182 195 180 167 157 162 147 110 30 359 341 273 250 227 219 229 234 229 229 233 238 246 247 245 239 236 232 228 226 225 227 227 226 224 223 221 222 224
194 190 188 189 183 183 182 179 171 164 179 167 146 132 335 341 351 317 216 206 224 223 229 235 234 235 239 242 252 246 241 238 236 231 229 227 227 224 223 223 221 221 223
196 186 186 182 180 179 194 193 184 178 188 194 174 161 171 220 287 328 312 238 226 223 236 239 241 242 237 236 244 252 246 242 243 241 235 230 225 222 220 218 218 219 219
187 179 184 184 180 184 204 212 193 188 175 194 200 204 194 175 183 266 309 290 252 249 255 256 259 252 246 243 240 241 244 242 242 246 242 235 225 220 219 218 220 221 220
198 196 195 190 190 193 206 211 198 195 189 193 192 188 193 199 198 200 250 270 285 266 255 252 254 257 261 249 242 249 249 244 241 244 244 240 235 231 229 228 228 229 227
214 212 200 195 195 198 207 213 207 202 203 198 201 194 187 191 198 197 221 243 258 267 259 251 246 250 258 260 244 234 237 242 236 241 244 245 241 238 235 236 237 238 233
211 224 205 199 203 209 207 200 200 207 204 206 214 218 213 216 196 191 195 222 244 262 248 232 247 261 275 279 272 252 237 219 205 222 228 237 240 240 241 242 241 238 235
210 210 198 195 196 207 205 194 209 222 214 220 226 219 219 223 202 194 189 186 223 240 229 242 295 284 338 344 1 321 291 121 151 189 201 210 220 217 235 244 244 234 222
201 187 177 169 177 199 201 193 214 226 202 230 231 224 224 226 209 206 195 186 189 220 240 216 198 28 359 13 19 12 5 72 77 75 95 110 123 136 153 178 190 167 163
184 159 153 153 155 171 183 176 208 214 194 229 221 212 227 228 204 197 195 197 195 199 224 215 215 356 14 19 33 21 33 57 72 74 79 87 92 97 104 112 120 125 130
169 164 168 156 151 146 144 146 194 215 220 242 224 211 233 216 197 193 180 180 184 179 201 211 177 45 57 47 26 29 31 40 63 75 77 82 85 83 88 97 99 111 124
166 161 156 147 152 140 129 146 202 229 228 235 229 209 226 188 184 184 177 186 196 190 180 187 180 129 77 69 47 39 32 39 50 68 66 70 75 75 79 87 95 102 111
151 145 143 146 149 144 142 171 179 211 215 224 213 198 201 171 181 181 180 185 190 182 171 165 163 131 94 86 57 41 32 20 35 52 55 63 68 70 70 78 89 96 101
147 141 134 138 137 137 151 182 169 158 145 131 166 180 189 188 196 191 184 188 172 161 150 145 139 138 134 122 113 66 16 12 15 12 33 41 53 59 61 69 76 86 95
145 136 124 115 112 131 170 175 171 163 155 132 69 160 153 154 163 174 179 183 172 165 156 153 152 147 159 168 187 181 216 343 356 10 13 15 15 17 24 50 77 76 76
129 122 122 122 107 95 98 144 146 148 142 148 225 300 63 131 135 131 133 154 164 167 168 163 171 183 200 196 168 164 153 158 292 328 316 334 350 340 335 343 47 61 67
141 135 133 136 152 27 87 145 149 146 140 150 157 120 73 64 108 118 117 116 122 136 163 166 178 196 196 194 180 182 195 207 245 247 243 277 310 308 309 321 14 26 57
152 155 160 164 157 284 139 153 148 146 120 109 111 129 131 67 90 118 116 103 91 84 163 173 188 198 193 185 190 190 181 147 352 273 235 256 282 286 295 283 278 256 251
157 167 164 166 174 261 222 162 152 141 121 91 74 80 97 89 77 112 118 112 85 51 57 75 90 106 127 138 143 130 131 144 238 262 215 247 267 289 286 276 273 258 258
157 152 136 131 159 251 244 153 152 148 134 106 58 56 63 71 84 105 119 120 105 65 68 71 73 77 95 119 138 158 166 170 178 221 192 217 225 266 275 262 271 267 259